Погода в Шумаках

Беларусь     52°09′42″N   23°32′25″E
темп.,
°C
ветер,
м/с
пор.,
м/с
влажн.,
%
обл.,
%
осадки,
мм/ч
давл.,
гПа
погр.,
м
24 июня, чт
чт2400:00+21сз239151 3.3 101736
03:00+20св229353 3.3 101725
06:00+20ссз22968 0.6 101846
09:00+24всв11835 0.6 1017328
12:00+29юв23621 0.0 10171083
15:00+32ююз354815 0.0 10152208
18:00+31юз34546 0.0 10141117
21:00+27ююз227031 0.0 101321
25 июня, пт
пт2500:00+19зюз51194100 4.6 1015364
03:00+19всв4895100 5.1 1013185
06:00+18юз2595100 0.0 1013123
09:00+21ююз2381100 0.0 1012246
12:00+25з2364100 0.0 1013728
15:00+27зюз2259100 0.0 10131183
18:00+24з467599 0.1 1013336
21:00+21сз4785100 0.1 1013378
26 июня, сб
сб2600:00+17сз389683 0.0 1015264
03:00+18сз378649 0.0 1016353
06:00+15ссз37906 0.0 1016213
09:00+18ссз457098 0.0 1017506
12:00+21сз455697 0.0 10181034
15:00+23ссз455160 0.0 10171399
18:00+23ссз34525 0.0 10161430
21:00+20сз35733 0.0 101697
27 июня, вс
вс2700:00+17ссв22826 0.0 101719
03:00+16с348849 0.0 101754
06:00+15с2390100 0.0 101861
09:00+20с337397 0.0 1018439
12:00+23с3358100 0.1 10181410
15:00+25ссз334891 0.1 10171766
18:00+25ссз444930 0.0 10171779
21:00+21с377399 0.0 1017152
28 июня, пн
пн2800:00+18ссв227625 0.0 101828
03:00+17с2278100 0.0 101833
06:00+18ссв1177100 0.0 101814
09:00+21с22670 0.0 1018429
12:00+24ссз345051 0.1 10181915
15:00+24ссз3454100 0.1 1017956
18:00+25ссз234523 0.0 10171257
21:00+20с236594 0.0 101742